Time,TemperatureF,DewpointF,PressureIn,WindDirection,WindDirectionDegrees,WindSpeedMPH,WindSpeedGustMPH,Humidity,HourlyPrecipIn,Conditions,Clouds,dailyrainin,SoftwareType,DateUTC
2013-08-24 00:01:00,82.8,70.7,29.94,SE,136,3.5,3.5,67,0.00,CLR,,0.00,WeatherDisplay:10.37,2013-08-24 05:01:00,
2013-08-24 00:06:00,82.7,70.6,29.94,SSE,149,4.6,4.6,67,0.00,CLR,,0.00,WeatherDisplay:10.37,2013-08-24 05:06:00,
2013-08-24 00:11:00,82.6,71.0,29.94,SE,128,3.5,3.5,68,0.00,CLR,,0.00,WeatherDisplay:10.37,2013-08-24 05:11:00,
2013-08-24 00:16:00,82.5,70.9,29.94,SE,134,4.6,4.6,68,0.00,CLR,,0.00,WeatherDisplay:10.37,2013-08-24 05:16:00,
2013-08-24 00:21:00,82.4,70.8,29.95,SE,146,3.5,3.5,68,0.00,CLR,,0.00,WeatherDisplay:10.37,2013-08-24 05:21:00,
2013-08-24 00:26:00,82.2,70.6,29.95,SSW,202,3.5,3.5,68,0.00,CLR,,0.00,WeatherDisplay:10.37,2013-08-24 05:26:00,
2013-08-24 00:31:00,82.0,70.8,29.95,SE,133,3.5,3.5,69,0.00,CLR,,0.00,WeatherDisplay:10.37,2013-08-24 05:31:00,
2013-08-24 00:36:00,81.9,70.7,29.95,SE,129,4.6,4.6,69,0.00,CLR,,0.00,WeatherDisplay:10.37,2013-08-24 05:36:00,
2013-08-24 00:41:00,81.8,70.6,29.95,SSE,153,3.5,3.5,69,0.00,CLR,,0.00,WeatherDisplay:10.37,2013-08-24 05:41:00,
2013-08-24 00:46:00,81.7,70.5,29.95,SSE,168,2.3,2.3,69,0.00,CLR,,0.00,WeatherDisplay:10.37,2013-08-24 05:46:00,
2013-08-24 00:51:00,81.5,70.3,29.95,South,180,2.0,2.0,69,0.00,CLR,,0.00,WeatherDisplay:10.37,2013-08-24 05:51:00,
2013-08-24 00:56:00,81.4,70.7,29.96,ESE,123,1.2,1.2,70,0.00,CLR,,0.00,WeatherDisplay:10.37,2013-08-24 05:56:00,
2013-08-24 01:01:00,81.2,70.5,29.96,SE,144,2.3,2.3,70,0.00,CLR,,0.00,WeatherDisplay:10.37,2013-08-24 06:01:00,
2013-08-24 01:06:00,81.1,70.4,29.96,SSE,149,1.2,1.2,70,0.00,CLR,,0.00,WeatherDisplay:10.37,2013-08-24 06:06:00,
2013-08-24 01:11:00,80.9,70.6,29.96,SSE,152,2.3,2.3,71,0.00,CLR,,0.00,WeatherDisplay:10.37,2013-08-24 06:11:00,
2013-08-24 01:16:00,80.7,70.4,29.96,SSE,160,0.0,0.0,71,0.00,CLR,,0.00,WeatherDisplay:10.37,2013-08-24 06:16:00,
2013-08-24 01:21:00,80.5,70.6,29.96,SSW,203,0.0,0.4,72,0.00,CLR,,0.00,WeatherDisplay:10.37,2013-08-24 06:21:00,
2013-08-24 01:26:00,80.4,70.5,29.96,SE,133,1.2,1.2,72,0.00,CLR,,0.00,WeatherDisplay:10.37,2013-08-24 06:26:00,
2013-08-24 01:31:00,80.3,70.9,29.96,SSE,159,2.3,2.3,73,0.00,CLR,,0.00,WeatherDisplay:10.37,2013-08-24 06:31:00,
2013-08-24 01:36:00,80.2,70.8,29.96,SSW,195,1.2,1.2,73,0.00,CLR,,0.00,WeatherDisplay:10.37,2013-08-24 06:36:00,
2013-08-24 01:41:00,80.0,70.6,29.96,SSE,149,0.0,0.2,73,0.00,CLR,,0.00,WeatherDisplay:10.37,2013-08-24 06:41:00,
2013-08-24 01:46:00,79.9,70.5,29.96,SSW,196,1.2,1.2,73,0.00,CLR,,0.00,WeatherDisplay:10.37,2013-08-24 06:46:00,
2013-08-24 01:51:00,79.7,70.7,29.96,SSW,202,1.2,1.2,74,0.00,CLR,,0.00,WeatherDisplay:10.37,2013-08-24 06:51:00,
2013-08-24 01:56:00,79.6,70.6,29.96,SSE,147,2.3,2.3,74,0.00,CLR,,0.00,WeatherDisplay:10.37,2013-08-24 06:56:00,
2013-08-24 02:01:00,79.6,70.6,29.96,SSW,203,1.2,1.2,74,0.00,CLR,,0.00,WeatherDisplay:10.37,2013-08-24 07:01:00,
2013-08-24 02:06:00,79.5,70.5,29.96,SSW,194,0.0,0.0,74,0.00,CLR,,0.00,WeatherDisplay:10.37,2013-08-24 07:06:00,
2013-08-24 02:11:00,79.4,70.8,29.96,SW,218,2.0,2.0,75,0.00,CLR,,0.00,WeatherDisplay:10.37,2013-08-24 07:11:00,
2013-08-24 02:16:00,79.3,70.7,29.96,SW,215,2.3,2.3,75,0.00,CLR,,0.00,WeatherDisplay:10.37,2013-08-24 07:16:00,
2013-08-24 02:21:00,79.2,70.6,29.96,SW,214,1.2,1.2,75,0.00,CLR,,0.00,WeatherDisplay:10.37,2013-08-24 07:21:00,
2013-08-24 02:26:00,79.0,70.4,29.96,SSW,206,1.2,1.2,75,0.00,CLR,,0.00,WeatherDisplay:10.37,2013-08-24 07:26:00,
2013-08-24 02:31:00,78.8,70.6,29.96,SSW,210,0.0,0.0,76,0.00,CLR,,0.00,WeatherDisplay:10.37,2013-08-24 07:31:00,
2013-08-24 02:36:00,78.6,70.4,29.96,SW,223,1.2,1.2,76,0.00,CLR,,0.00,WeatherDisplay:10.37,2013-08-24 07:36:00,
2013-08-24 02:41:00,78.5,70.3,29.96,SSW,203,1.0,1.0,76,0.00,CLR,,0.00,WeatherDisplay:10.37,2013-08-24 07:41:00,
2013-08-24 02:46:00,78.6,70.4,29.96,SW,229,2.3,2.3,76,0.00,CLR,,0.00,WeatherDisplay:10.37,2013-08-24 07:46:00,
2013-08-24 02:51:00,78.6,70.4,29.96,WSW,242,1.2,1.2,76,0.00,CLR,,0.00,WeatherDisplay:10.37,2013-08-24 07:51:00,
2013-08-24 02:56:00,78.5,70.7,29.97,SW,223,0.0,0.0,77,0.00,CLR,,0.00,WeatherDisplay:10.37,2013-08-24 07:56:00,
2013-08-24 03:01:00,78.1,70.3,29.97,WSW,238,1.2,1.2,77,0.00,CLR,,0.00,WeatherDisplay:10.37,2013-08-24 08:01:00,
2013-08-24 03:06:00,78.0,70.6,29.97,SW,221,2.3,2.3,78,0.00,CLR,,0.00,WeatherDisplay:10.37,2013-08-24 08:06:00,
2013-08-24 03:11:00,77.9,70.5,29.96,SW,226,0.0,0.0,78,0.00,CLR,,0.00,WeatherDisplay:10.37,2013-08-24 08:11:00,
2013-08-24 03:16:00,77.8,70.4,29.96,SW,221,2.3,2.3,78,0.00,CLR,,0.00,WeatherDisplay:10.37,2013-08-24 08:16:00,
2013-08-24 03:21:00,77.8,70.4,29.96,SSW,199,0.0,0.1,78,0.00,CLR,,0.00,WeatherDisplay:10.37,2013-08-24 08:21:00,
2013-08-24 03:26:00,77.7,70.7,29.97,SW,230,1.2,1.2,79,0.00,CLR,,0.00,WeatherDisplay:10.37,2013-08-24 08:26:00,
2013-08-24 03:31:00,77.7,70.7,29.96,SW,217,2.3,2.3,79,0.00,CLR,,0.00,WeatherDisplay:10.37,2013-08-24 08:31:00,
2013-08-24 03:36:00,77.7,70.7,29.96,SW,229,2.3,2.3,79,0.00,CLR,,0.00,WeatherDisplay:10.37,2013-08-24 08:36:00,
2013-08-24 03:41:00,77.8,70.8,29.96,SSW,213,2.3,2.3,79,0.00,CLR,,0.00,WeatherDisplay:10.37,2013-08-24 08:41:00,
2013-08-24 03:46:00,77.8,70.8,29.96,SSW,209,1.2,0.0,79,0.00,CLR,,0.00,WeatherDisplay:10.37,2013-08-24 08:46:00,
2013-08-24 03:51:00,77.6,70.6,29.96,WSW,238,1.2,1.2,79,0.00,CLR,,0.00,WeatherDisplay:10.37,2013-08-24 08:51:00,
2013-08-24 03:56:00,77.4,70.4,29.96,SW,230,1.2,0.0,79,0.00,CLR,,0.00,WeatherDisplay:10.37,2013-08-24 08:56:00,
2013-08-24 04:01:00,77.2,70.2,29.96,West,259,1.2,1.2,79,0.00,CLR,,0.00,WeatherDisplay:10.37,2013-08-24 09:01:00,
2013-08-24 04:06:00,77.1,70.1,29.96,WSW,258,0.0,0.0,79,0.00,CLR,,0.00,WeatherDisplay:10.37,2013-08-24 09:06:00,
2013-08-24 04:11:00,76.9,70.3,29.96,WSW,256,0.0,0.0,80,0.00,CLR,,0.00,WeatherDisplay:10.37,2013-08-24 09:11:00,
2013-08-24 04:16:00,76.7,70.1,29.96,SW,225,1.2,0.0,80,0.00,CLR,,0.00,WeatherDisplay:10.37,2013-08-24 09:16:00,
2013-08-24 04:21:00,76.7,70.1,29.96,SW,225,0.0,0.0,80,0.00,CLR,,0.00,WeatherDisplay:10.37,2013-08-24 09:21:00,
2013-08-24 04:26:00,76.5,70.2,29.96,SW,225,0.0,0.0,81,0.00,CLR,,0.00,WeatherDisplay:10.37,2013-08-24 09:26:00,
2013-08-24 04:31:00,76.3,70.0,29.96,SW,225,0.0,0.0,81,0.00,CLR,,0.00,WeatherDisplay:10.37,2013-08-24 09:31:00,
2013-08-24 04:36:00,76.2,70.3,29.96,SW,217,1.2,1.2,82,0.00,CLR,,0.00,WeatherDisplay:10.37,2013-08-24 09:36:00,
2013-08-24 04:41:00,76.3,70.0,29.96,SW,219,0.0,0.0,81,0.00,CLR,,0.00,WeatherDisplay:10.37,2013-08-24 09:41:00,
2013-08-24 04:46:00,76.3,70.0,29.96,SW,219,0.0,0.0,81,0.00,CLR,,0.00,WeatherDisplay:10.37,2013-08-24 09:46:00,
2013-08-24 04:51:00,76.2,69.9,29.96,SW,220,0.0,0.0,81,0.00,CLR,,0.00,WeatherDisplay:10.37,2013-08-24 09:51:00,
2013-08-24 04:56:00,76.1,69.8,29.96,SW,219,0.0,0.0,81,0.00,CLR,,0.00,WeatherDisplay:10.37,2013-08-24 09:56:00,
2013-08-24 05:01:00,75.9,70.0,29.96,SW,220,0.0,0.0,82,0.00,CLR,,0.00,WeatherDisplay:10.37,2013-08-24 10:01:00,
2013-08-24 05:06:00,75.7,69.8,29.96,SW,219,0.0,0.0,82,0.00,CLR,,0.00,WeatherDisplay:10.37,2013-08-24 10:06:00,
2013-08-24 05:11:00,75.7,69.8,29.96,SW,219,0.0,0.0,82,0.00,CLR,,0.00,WeatherDisplay:10.37,2013-08-24 10:11:00,
2013-08-24 05:16:00,75.5,69.6,29.96,SW,219,0.0,0.0,82,0.00,CLR,,0.00,WeatherDisplay:10.37,2013-08-24 10:16:00,
2013-08-24 05:21:00,75.4,69.5,29.96,SW,219,0.0,0.0,82,0.00,CLR,,0.00,WeatherDisplay:10.37,2013-08-24 10:21:00,
2013-08-24 05:26:00,75.1,69.6,29.96,SW,220,0.0,0.0,83,0.00,CLR,,0.00,WeatherDisplay:10.37,2013-08-24 10:26:00,
2013-08-24 05:31:00,74.9,69.4,29.96,SW,219,0.0,0.0,83,0.00,CLR,,0.00,WeatherDisplay:10.37,2013-08-24 10:31:00,
2013-08-24 05:36:00,74.9,69.7,29.96,SW,219,0.0,0.0,84,0.00,CLR,,0.00,WeatherDisplay:10.37,2013-08-24 10:36:00,
2013-08-24 05:41:00,75.0,69.8,29.97,SW,219,0.0,0.0,84,0.00,CLR,,0.00,WeatherDisplay:10.37,2013-08-24 10:41:00,
2013-08-24 05:46:00,75.0,69.8,29.97,SW,219,0.0,0.0,84,0.00,CLR,,0.00,WeatherDisplay:10.37,2013-08-24 10:46:00,
2013-08-24 05:51:00,74.9,69.7,29.97,SW,219,0.0,0.0,84,0.00,CLR,,0.00,WeatherDisplay:10.37,2013-08-24 10:51:00,
2013-08-24 05:56:00,74.7,69.5,29.97,SW,219,0.0,0.0,84,0.00,CLR,,0.00,WeatherDisplay:10.37,2013-08-24 10:56:00,
2013-08-24 06:01:00,74.6,69.8,29.97,SW,219,0.0,0.0,85,0.00,CLR,,0.00,WeatherDisplay:10.37,2013-08-24 11:01:00,
2013-08-24 06:06:00,74.7,69.9,29.97,SW,219,0.0,0.0,85,0.00,CLR,,0.00,WeatherDisplay:10.37,2013-08-24 11:06:00,
2013-08-24 06:11:00,74.7,69.9,29.97,SW,219,0.0,0.0,85,0.00,CLR,,0.00,WeatherDisplay:10.37,2013-08-24 11:11:00,
2013-08-24 06:16:00,74.5,69.3,29.97,SW,220,0.0,0.0,84,0.00,CLR,,0.00,WeatherDisplay:10.37,2013-08-24 11:16:00,
2013-08-24 06:21:00,74.6,69.8,29.98,SW,220,0.0,0.0,85,0.00,CLR,,0.00,WeatherDisplay:10.37,2013-08-24 11:21:00,
2013-08-24 06:26:00,74.7,69.9,29.98,SW,219,0.0,0.0,85,0.00,CLR,,0.00,WeatherDisplay:10.37,2013-08-24 11:26:00,
2013-08-24 06:31:00,74.8,70.0,29.98,SW,219,0.0,0.0,85,0.00,CLR,,0.00,WeatherDisplay:10.37,2013-08-24 11:31:00,
2013-08-24 06:36:00,74.7,69.9,29.98,SW,219,0.0,0.0,85,0.00,CLR,,0.00,WeatherDisplay:10.37,2013-08-24 11:36:00,
2013-08-24 06:41:00,74.8,70.0,29.98,SW,219,0.0,0.0,85,0.00,CLR,,0.00,WeatherDisplay:10.37,2013-08-24 11:41:00,
2013-08-24 06:46:00,74.9,69.7,29.98,SW,220,0.0,0.0,84,0.00,CLR,,0.00,WeatherDisplay:10.37,2013-08-24 11:46:00,
2013-08-24 06:51:00,74.7,69.5,29.98,SW,219,0.0,0.0,84,0.00,CLR,,0.00,WeatherDisplay:10.37,2013-08-24 11:51:00,
2013-08-24 06:56:00,74.6,69.4,29.98,SW,219,0.0,0.0,84,0.00,CLR,,0.00,WeatherDisplay:10.37,2013-08-24 11:56:00,
2013-08-24 07:01:00,74.4,69.6,29.98,SW,219,0.0,0.0,85,0.00,CLR,,0.00,WeatherDisplay:10.37,2013-08-24 12:01:00,
2013-08-24 07:06:00,74.5,69.7,29.98,SW,219,0.0,0.0,85,0.00,CLR,,0.00,WeatherDisplay:10.37,2013-08-24 12:06:00,
2013-08-24 07:11:00,74.6,69.8,29.99,SW,219,0.0,0.0,85,0.00,CLR,,0.00,WeatherDisplay:10.37,2013-08-24 12:11:00,
2013-08-24 07:16:00,74.6,69.8,29.99,SW,219,0.0,0.0,85,0.00,CLR,,0.00,WeatherDisplay:10.37,2013-08-24 12:16:00,
2013-08-24 07:21:00,74.6,69.8,29.99,SW,219,0.0,0.0,85,0.00,CLR,,0.00,WeatherDisplay:10.37,2013-08-24 12:21:00,
2013-08-24 07:26:00,74.6,69.8,29.99,SW,220,0.0,0.0,85,0.00,CLR,,0.00,WeatherDisplay:10.37,2013-08-24 12:26:00,
2013-08-24 07:31:00,74.6,69.8,30.00,SW,219,0.0,0.0,85,0.00,CLR,,0.00,WeatherDisplay:10.37,2013-08-24 12:31:00,
2013-08-24 07:36:00,74.5,69.7,30.00,SW,219,0.0,0.0,85,0.00,CLR,,0.00,WeatherDisplay:10.37,2013-08-24 12:36:00,
2013-08-24 07:41:00,74.5,69.7,30.00,SW,219,0.0,0.0,85,0.00,CLR,,0.00,WeatherDisplay:10.37,2013-08-24 12:41:00,
2013-08-24 07:46:00,74.5,69.7,30.00,SW,219,0.0,0.0,85,0.00,CLR,,0.00,WeatherDisplay:10.37,2013-08-24 12:46:00,
2013-08-24 07:51:00,74.8,70.0,30.00,SW,220,0.0,0.0,85,0.00,CLR,,0.00,WeatherDisplay:10.37,2013-08-24 12:51:00,
2013-08-24 07:56:00,75.1,70.3,30.00,SW,219,0.0,0.0,85,0.00,CLR,,0.00,WeatherDisplay:10.37,2013-08-24 12:56:00,
2013-08-24 08:01:00,75.5,70.3,30.00,SW,220,0.0,0.0,84,0.00,CLR,,0.00,WeatherDisplay:10.37,2013-08-24 13:01:00,
2013-08-24 08:06:00,76.0,70.8,30.00,SW,219,0.0,0.0,84,0.00,CLR,,0.00,WeatherDisplay:10.37,2013-08-24 13:06:00,
2013-08-24 08:11:00,76.8,71.2,30.00,SW,218,0.0,0.0,83,0.00,CLR,,0.00,WeatherDisplay:10.37,2013-08-24 13:11:00,
2013-08-24 08:16:00,78.1,71.8,30.00,SW,217,0.0,0.0,81,0.00,CLR,,0.00,WeatherDisplay:10.37,2013-08-24 13:16:00,
2013-08-24 08:21:00,79.3,71.5,30.00,WSW,254,0.0,0.0,77,0.00,CLR,,0.00,WeatherDisplay:10.37,2013-08-24 13:21:00,
2013-08-24 08:26:00,79.9,71.7,30.01,West,268,1.2,0.0,76,0.00,CLR,,0.00,WeatherDisplay:10.37,2013-08-24 13:26:00,
2013-08-24 08:31:00,80.6,71.9,30.01,West,280,1.0,1.0,75,0.00,CLR,,0.00,WeatherDisplay:10.37,2013-08-24 13:31:00,
2013-08-24 08:36:00,81.2,71.7,30.01,NE,36,0.0,0.0,73,0.00,CLR,,0.00,WeatherDisplay:10.37,2013-08-24 13:36:00,
2013-08-24 08:41:00,82.1,71.8,30.01,WNW,286,1.2,0.0,71,0.00,CLR,,0.00,WeatherDisplay:10.37,2013-08-24 13:41:00,
2013-08-24 08:46:00,82.4,72.0,30.01,WNW,287,1.2,0.0,71,0.00,CLR,,0.00,WeatherDisplay:10.37,2013-08-24 13:46:00,
2013-08-24 08:51:00,82.6,71.8,30.02,West,281,1.2,1.2,70,0.00,CLR,,0.00,WeatherDisplay:10.37,2013-08-24 13:51:00,
2013-08-24 08:56:00,83.0,72.2,30.02,West,267,1.2,1.2,70,0.00,CLR,,0.00,WeatherDisplay:10.37,2013-08-24 13:56:00,
2013-08-24 09:01:00,83.2,72.0,30.02,NNE,25,0.0,0.2,69,0.00,CLR,,0.00,WeatherDisplay:10.37,2013-08-24 14:01:00,
2013-08-24 09:06:00,83.8,71.2,30.02,West,279,1.2,1.2,66,0.00,CLR,,0.00,WeatherDisplay:10.37,2013-08-24 14:06:00,
2013-08-24 09:11:00,84.6,71.5,30.02,WSW,241,2.3,2.3,65,0.00,CLR,,0.00,WeatherDisplay:10.37,2013-08-24 14:11:00,
2013-08-24 09:16:00,85.1,71.5,30.02,West,275,1.2,1.2,64,0.00,CLR,,0.00,WeatherDisplay:10.37,2013-08-24 14:16:00,
2013-08-24 09:21:00,85.1,70.1,30.02,West,267,1.2,1.2,61,0.00,CLR,,0.00,WeatherDisplay:10.37,2013-08-24 14:21:00,
2013-08-24 09:26:00,85.4,70.4,30.02,West,265,0.0,0.0,61,0.00,CLR,,0.00,WeatherDisplay:10.37,2013-08-24 14:26:00,
2013-08-24 09:31:00,86.5,70.5,30.02,West,269,0.0,0.1,59,0.00,CLR,,0.00,WeatherDisplay:10.37,2013-08-24 14:31:00,
2013-08-24 09:36:00,87.4,70.3,30.02,NE,42,2.3,2.3,57,0.00,CLR,,0.00,WeatherDisplay:10.37,2013-08-24 14:36:00,
2013-08-24 09:41:00,87.8,69.6,30.02,West,271,2.0,2.0,55,0.00,CLR,,0.00,WeatherDisplay:10.37,2013-08-24 14:41:00,
2013-08-24 09:46:00,87.2,68.5,30.02,West,279,3.5,3.5,54,0.00,CLR,,0.00,WeatherDisplay:10.37,2013-08-24 14:46:00,
2013-08-24 09:51:00,87.0,69.4,30.02,West,280,1.2,1.2,56,0.00,CLR,,0.00,WeatherDisplay:10.37,2013-08-24 14:51:00,
2013-08-24 09:56:00,87.5,68.3,30.02,ENE,70,2.3,2.3,53,0.00,CLR,,0.00,WeatherDisplay:10.37,2013-08-24 14:56:00,
2013-08-24 10:01:00,88.0,69.3,30.02,East,96,1.2,0.0,54,0.00,CLR,,0.00,WeatherDisplay:10.37,2013-08-24 15:01:00,
2013-08-24 10:06:00,89.3,68.2,30.02,East,89,2.3,2.3,50,0.00,CLR,,0.00,WeatherDisplay:10.37,2013-08-24 15:06:00,
2013-08-24 10:11:00,89.0,67.4,30.02,ESE,119,2.3,2.3,49,0.00,CLR,,0.00,WeatherDisplay:10.37,2013-08-24 15:11:00,
2013-08-24 10:16:00,89.3,68.2,30.02,ESE,109,2.3,2.3,50,0.00,CLR,,0.00,WeatherDisplay:10.37,2013-08-24 15:16:00,
2013-08-24 10:21:00,89.6,68.5,30.03,ESE,108,3.5,3.5,50,0.00,CLR,,0.00,WeatherDisplay:10.37,2013-08-24 15:21:00,
2013-08-24 10:26:00,89.4,68.3,30.02,SE,127,3.5,3.5,50,0.00,CLR,,0.00,WeatherDisplay:10.37,2013-08-24 15:26:00,
2013-08-24 10:31:00,88.9,68.4,30.02,East,96,2.3,2.3,51,0.00,CLR,,0.00,WeatherDisplay:10.37,2013-08-24 15:31:00,
2013-08-24 10:36:00,89.2,68.7,30.02,East,98,6.9,6.9,51,0.00,CLR,,0.00,WeatherDisplay:10.37,2013-08-24 15:36:00,
2013-08-24 10:41:00,89.5,69.0,30.02,SSE,149,3.5,3.5,51,0.00,CLR,,0.00,WeatherDisplay:10.37,2013-08-24 15:41:00,
2013-08-24 10:46:00,89.8,69.8,30.02,East,92,1.2,1.2,52,0.00,CLR,,0.00,WeatherDisplay:10.37,2013-08-24 15:46:00,
2013-08-24 10:51:00,89.8,69.3,30.02,East,88,4.6,4.6,51,0.00,CLR,,0.00,WeatherDisplay:10.37,2013-08-24 15:51:00,
2013-08-24 10:56:00,89.4,68.9,30.02,ESE,107,2.3,2.3,51,0.00,CLR,,0.00,WeatherDisplay:10.37,2013-08-24 15:56:00,
2013-08-24 11:01:00,90.2,70.2,30.02,NE,55,1.2,1.2,52,0.00,CLR,,0.00,WeatherDisplay:10.37,2013-08-24 16:01:00,
2013-08-24 11:06:00,91.1,69.9,30.02,ENE,58,3.5,3.5,50,0.00,CLR,,0.00,WeatherDisplay:10.37,2013-08-24 16:06:00,
2013-08-24 11:11:00,91.8,70.5,30.02,ENE,58,1.2,1.2,50,0.00,CLR,,0.00,WeatherDisplay:10.37,2013-08-24 16:11:00,
2013-08-24 11:16:00,91.9,70.6,30.02,East,84,3.5,3.5,50,0.00,CLR,,0.00,WeatherDisplay:10.37,2013-08-24 16:16:00,
2013-08-24 11:21:00,91.3,70.1,30.02,ENE,63,4.6,4.6,50,0.00,CLR,,0.00,WeatherDisplay:10.37,2013-08-24 16:21:00,
2013-08-24 11:26:00,91.6,70.3,30.02,East,84,5.8,5.8,50,0.00,CLR,,0.00,WeatherDisplay:10.37,2013-08-24 16:26:00,
2013-08-24 11:31:00,92.1,71.4,30.02,NE,45,3.0,3.0,51,0.00,CLR,,0.00,WeatherDisplay:10.37,2013-08-24 16:31:00,
2013-08-24 11:36:00,91.9,70.6,30.02,ENE,75,9.2,9.2,50,0.00,CLR,,0.00,WeatherDisplay:10.37,2013-08-24 16:36:00,
2013-08-24 11:41:00,92.0,71.3,30.02,NE,51,3.0,3.0,51,0.00,CLR,,0.00,WeatherDisplay:10.37,2013-08-24 16:41:00,
2013-08-24 11:46:00,92.7,72.5,30.02,NNW,336,1.2,0.0,52,0.00,CLR,,0.00,WeatherDisplay:10.37,2013-08-24 16:46:00,
2013-08-24 11:51:00,93.0,71.6,30.02,ESE,111,3.5,3.5,50,0.00,CLR,,0.00,WeatherDisplay:10.37,2013-08-24 16:51:00,
2013-08-24 11:56:00,92.6,71.2,30.02,NE,51,3.5,3.5,50,0.00,CLR,,0.00,WeatherDisplay:10.37,2013-08-24 16:56:00,
2013-08-24 12:01:00,93.2,70.6,30.02,NE,49,4.6,4.6,48,0.00,CLR,,0.00,WeatherDisplay:10.37,2013-08-24 17:01:00,
2013-08-24 12:06:00,93.4,70.2,30.02,ESE,109,8.1,8.1,47,0.00,CLR,,0.00,WeatherDisplay:10.37,2013-08-24 17:06:00,
2013-08-24 12:11:00,92.9,70.9,30.01,ENE,66,5.8,5.8,49,0.00,CLR,,0.00,WeatherDisplay:10.37,2013-08-24 17:11:00,
2013-08-24 12:16:00,94.0,71.3,30.01,ENE,61,4.6,4.6,48,0.00,CLR,,0.00,WeatherDisplay:10.37,2013-08-24 17:16:00,
2013-08-24 12:21:00,94.1,70.8,30.01,ENE,70,3.5,3.5,47,0.00,CLR,,0.00,WeatherDisplay:10.37,2013-08-24 17:21:00,
2013-08-24 12:26:00,94.4,71.7,30.01,ENE,75,5.0,5.0,48,0.00,CLR,,0.00,WeatherDisplay:10.37,2013-08-24 17:26:00,
2013-08-24 12:31:00,94.8,71.4,30.00,East,96,5.8,5.8,47,0.00,CLR,,0.00,WeatherDisplay:10.37,2013-08-24 17:31:00,
2013-08-24 12:36:00,94.9,70.9,30.00,East,97,4.6,4.6,46,0.00,CLR,,0.00,WeatherDisplay:10.37,2013-08-24 17:36:00,
2013-08-24 12:41:00,94.7,71.3,30.00,North,5,2.3,2.3,47,0.00,CLR,,0.00,WeatherDisplay:10.37,2013-08-24 17:41:00,
2013-08-24 12:46:00,95.3,70.6,30.00,ENE,64,4.6,4.6,45,0.00,CLR,,0.00,WeatherDisplay:10.37,2013-08-24 17:46:00,
2013-08-24 12:51:00,95.4,70.7,30.00,WNW,299,4.0,4.0,45,0.00,CLR,,0.00,WeatherDisplay:10.37,2013-08-24 17:51:00,
2013-08-24 12:56:00,95.9,71.8,30.00,East,85,2.3,2.3,46,0.00,CLR,,0.00,WeatherDisplay:10.37,2013-08-24 17:56:00,
2013-08-24 13:01:00,96.5,71.0,30.00,NE,39,3.5,3.5,44,0.00,CLR,,0.00,WeatherDisplay:10.37,2013-08-24 18:01:00,
2013-08-24 13:06:00,95.5,70.1,30.00,NNE,16,3.5,3.5,44,0.00,CLR,,0.00,WeatherDisplay:10.37,2013-08-24 18:06:00,
2013-08-24 13:11:00,95.1,69.8,29.99,NE,55,3.5,3.5,44,0.00,CLR,,0.00,WeatherDisplay:10.37,2013-08-24 18:11:00,
2013-08-24 13:16:00,94.5,69.9,29.99,ENE,64,3.5,3.5,45,0.00,CLR,,0.00,WeatherDisplay:10.37,2013-08-24 18:16:00,
2013-08-24 13:21:00,94.5,69.9,29.99,ENE,68,3.5,3.5,45,0.00,CLR,,0.00,WeatherDisplay:10.37,2013-08-24 18:21:00,
2013-08-24 13:26:00,95.2,72.4,29.99,NNW,334,3.0,3.0,48,0.00,CLR,,0.00,WeatherDisplay:10.37,2013-08-24 18:26:00,
2013-08-24 13:31:00,96.0,69.9,29.99,ESE,118,3.5,3.5,43,0.00,CLR,,0.00,WeatherDisplay:10.37,2013-08-24 18:31:00,
2013-08-24 13:36:00,96.4,69.6,29.99,ENE,77,5.8,5.8,42,0.00,CLR,,0.00,WeatherDisplay:10.37,2013-08-24 18:36:00,
2013-08-24 13:41:00,96.4,69.6,29.99,NW,309,2.3,2.3,42,0.00,CLR,,0.00,WeatherDisplay:10.37,2013-08-24 18:41:00,
2013-08-24 13:46:00,95.4,69.4,29.99,NE,42,3.5,3.5,43,0.01,RA,,0.01,WeatherDisplay:10.37,2013-08-24 18:46:00,
2013-08-24 13:51:00,95.1,69.8,29.98,NNE,15,3.5,3.5,44,0.01,RA,,0.01,WeatherDisplay:10.37,2013-08-24 18:51:00,
2013-08-24 13:56:00,95.2,69.2,29.98,NE,49,3.5,3.5,43,0.01,CLR,,0.01,WeatherDisplay:10.37,2013-08-24 18:56:00,
2013-08-24 14:01:00,95.0,69.7,29.98,NE,49,3.5,3.5,44,0.01,CLR,,0.01,WeatherDisplay:10.37,2013-08-24 19:01:00,
2013-08-24 14:06:00,96.0,69.9,29.98,NE,51,1.2,1.2,43,0.01,CLR,,0.01,WeatherDisplay:10.37,2013-08-24 19:06:00,
2013-08-24 14:11:00,97.0,70.8,29.97,ENE,74,3.5,3.5,43,0.01,CLR,,0.01,WeatherDisplay:10.37,2013-08-24 19:11:00,
2013-08-24 14:16:00,97.2,68.9,29.97,NNE,32,4.6,4.6,40,0.01,CLR,,0.01,WeatherDisplay:10.37,2013-08-24 19:16:00,
2013-08-24 14:21:00,97.6,69.2,29.97,ESE,104,13.8,13.8,40,0.01,CLR,,0.01,WeatherDisplay:10.37,2013-08-24 19:21:00,
2013-08-24 14:26:00,97.8,68.6,29.97,NE,49,6.9,6.9,39,0.01,CLR,,0.01,WeatherDisplay:10.37,2013-08-24 19:26:00,
2013-08-24 14:31:00,98.6,70.1,29.97,East,98,2.3,2.3,40,0.01,CLR,,0.01,WeatherDisplay:10.37,2013-08-24 19:31:00,
2013-08-24 14:36:00,98.1,67.4,29.96,East,82,5.8,5.8,37,0.01,CLR,,0.01,WeatherDisplay:10.37,2013-08-24 19:36:00,
2013-08-24 14:41:00,97.1,69.5,29.97,ENE,68,3.5,3.5,41,0.01,CLR,,0.01,WeatherDisplay:10.37,2013-08-24 19:41:00,
2013-08-24 14:46:00,97.1,69.5,29.96,ENE,60,3.5,3.5,41,0.00,CLR,,0.01,WeatherDisplay:10.37,2013-08-24 19:46:00,
2013-08-24 14:51:00,98.0,68.8,29.96,ESE,118,4.6,4.6,39,0.00,CLR,,0.01,WeatherDisplay:10.37,2013-08-24 19:51:00,
2013-08-24 14:56:00,98.0,68.8,29.95,ENE,75,11.5,11.5,39,0.00,CLR,,0.01,WeatherDisplay:10.37,2013-08-24 19:56:00,
2013-08-24 15:01:00,98.1,68.9,29.95,East,86,6.9,6.9,39,0.00,CLR,,0.01,WeatherDisplay:10.37,2013-08-24 20:01:00,
2013-08-24 15:06:00,98.4,68.4,29.95,NE,51,3.5,3.5,38,0.00,CLR,,0.01,WeatherDisplay:10.37,2013-08-24 20:06:00,
2013-08-24 15:11:00,98.4,68.4,29.95,NE,55,3.5,3.5,38,0.00,CLR,,0.01,WeatherDisplay:10.37,2013-08-24 20:11:00,
2013-08-24 15:16:00,98.3,69.1,29.95,East,82,10.4,10.4,39,0.00,CLR,,0.01,WeatherDisplay:10.37,2013-08-24 20:16:00,
2013-08-24 15:21:00,98.0,68.8,29.94,NE,54,2.3,2.3,39,0.00,CLR,,0.01,WeatherDisplay:10.37,2013-08-24 20:21:00,
2013-08-24 15:26:00,98.7,68.7,29.94,NE,47,3.5,3.5,38,0.00,CLR,,0.01,WeatherDisplay:10.37,2013-08-24 20:26:00,
2013-08-24 15:31:00,99.0,66.6,29.94,ESE,123,4.6,4.6,35,0.00,CLR,,0.01,WeatherDisplay:10.37,2013-08-24 20:31:00,
2013-08-24 15:36:00,98.3,67.6,29.93,NE,40,3.5,3.5,37,0.00,CLR,,0.01,WeatherDisplay:10.37,2013-08-24 20:36:00,
2013-08-24 15:41:00,98.7,67.9,29.93,East,85,9.2,9.2,37,0.00,CLR,,0.01,WeatherDisplay:10.37,2013-08-24 20:41:00,
2013-08-24 15:46:00,99.1,68.3,29.93,ENE,73,5.8,5.8,37,0.00,CLR,,0.01,WeatherDisplay:10.37,2013-08-24 20:46:00,
2013-08-24 15:51:00,99.5,67.8,29.93,ENE,77,4.6,4.6,36,0.00,CLR,,0.01,WeatherDisplay:10.37,2013-08-24 20:51:00,
2013-08-24 15:56:00,99.8,67.3,29.92,NNE,17,4.6,4.6,35,0.00,CLR,,0.01,WeatherDisplay:10.37,2013-08-24 20:56:00,
2013-08-24 16:01:00,99.6,67.9,29.92,ESE,104,4.6,4.6,36,0.00,CLR,,0.01,WeatherDisplay:10.37,2013-08-24 21:01:00,
2013-08-24 16:06:00,99.3,67.6,29.92,East,88,3.5,3.5,36,0.00,CLR,,0.01,WeatherDisplay:10.37,2013-08-24 21:06:00,
2013-08-24 16:11:00,98.7,67.1,29.92,ENE,73,8.1,8.1,36,0.00,CLR,,0.01,WeatherDisplay:10.37,2013-08-24 21:11:00,
2013-08-24 16:16:00,99.2,66.7,29.92,ENE,74,8.1,8.1,35,0.00,CLR,,0.01,WeatherDisplay:10.37,2013-08-24 21:16:00,
2013-08-24 16:21:00,99.6,67.9,29.91,ENE,58,2.3,2.3,36,0.00,CLR,,0.01,WeatherDisplay:10.37,2013-08-24 21:21:00,
2013-08-24 16:26:00,99.6,67.9,29.91,NE,41,3.5,3.5,36,0.00,CLR,,0.01,WeatherDisplay:10.37,2013-08-24 21:26:00,
2013-08-24 16:31:00,99.7,66.3,29.91,East,87,5.0,5.0,34,0.00,CLR,,0.01,WeatherDisplay:10.37,2013-08-24 21:31:00,
2013-08-24 16:36:00,99.8,67.3,29.91,East,98,3.5,3.5,35,0.00,CLR,,0.01,WeatherDisplay:10.37,2013-08-24 21:36:00,
2013-08-24 16:41:00,99.8,66.4,29.91,East,89,12.7,12.7,34,0.00,CLR,,0.01,WeatherDisplay:10.37,2013-08-24 21:41:00,
2013-08-24 16:46:00,98.9,67.3,29.91,NE,46,4.6,4.6,36,0.00,CLR,,0.01,WeatherDisplay:10.37,2013-08-24 21:46:00,
2013-08-24 16:51:00,99.0,67.4,29.91,East,89,3.5,3.5,36,0.00,CLR,,0.01,WeatherDisplay:10.37,2013-08-24 21:51:00,
2013-08-24 16:56:00,100.0,68.3,29.90,NE,42,3.5,3.5,36,0.00,CLR,,0.01,WeatherDisplay:10.37,2013-08-24 21:56:00,
2013-08-24 17:01:00,100.5,67.0,29.90,SE,141,3.5,3.5,34,0.00,CLR,,0.01,WeatherDisplay:10.37,2013-08-24 22:01:00,
2013-08-24 17:06:00,100.0,67.4,29.90,ENE,76,4.6,4.6,35,0.00,CLR,,0.01,WeatherDisplay:10.37,2013-08-24 22:06:00,
2013-08-24 17:11:00,100.7,68.0,29.89,East,98,9.2,9.2,35,0.00,CLR,,0.01,WeatherDisplay:10.37,2013-08-24 22:11:00,
2013-08-24 17:16:00,99.8,68.1,29.90,East,86,3.5,3.5,36,0.00,CLR,,0.01,WeatherDisplay:10.37,2013-08-24 22:16:00,
2013-08-24 17:21:00,100.0,68.3,29.89,East,79,4.6,4.6,36,0.00,CLR,,0.01,WeatherDisplay:10.37,2013-08-24 22:21:00,
2013-08-24 17:26:00,99.5,67.8,29.89,ENE,77,3.5,3.5,36,0.00,CLR,,0.01,WeatherDisplay:10.37,2013-08-24 22:26:00,
2013-08-24 17:31:00,99.5,67.8,29.89,East,96,4.6,4.6,36,0.00,CLR,,0.01,WeatherDisplay:10.37,2013-08-24 22:31:00,
2013-08-24 17:36:00,99.6,67.9,29.89,ENE,69,6.9,6.9,36,0.00,CLR,,0.01,WeatherDisplay:10.37,2013-08-24 22:36:00,
2013-08-24 17:41:00,99.4,66.9,29.89,NE,40,3.5,3.5,35,0.00,CLR,,0.01,WeatherDisplay:10.37,2013-08-24 22:41:00,
2013-08-24 17:46:00,99.5,67.0,29.89,East,82,2.3,2.3,35,0.00,CLR,,0.01,WeatherDisplay:10.37,2013-08-24 22:46:00,
2013-08-24 17:51:00,99.2,66.7,29.89,ENE,75,4.6,4.6,35,0.00,CLR,,0.01,WeatherDisplay:10.37,2013-08-24 22:51:00,
2013-08-24 17:56:00,99.1,66.6,29.89,ENE,77,3.5,3.5,35,0.00,CLR,,0.01,WeatherDisplay:10.37,2013-08-24 22:56:00,
2013-08-24 18:01:00,99.1,67.5,29.89,NNE,32,3.5,3.5,36,0.00,CLR,,0.01,WeatherDisplay:10.37,2013-08-24 23:01:00,
2013-08-24 18:06:00,99.2,67.6,29.88,ENE,59,4.6,4.6,36,0.00,CLR,,0.01,WeatherDisplay:10.37,2013-08-24 23:06:00,
2013-08-24 18:11:00,99.0,66.6,29.89,ENE,58,4.6,4.6,35,0.00,CLR,,0.01,WeatherDisplay:10.37,2013-08-24 23:11:00,
2013-08-24 18:16:00,98.6,67.0,29.89,East,94,4.6,4.6,36,0.00,CLR,,0.01,WeatherDisplay:10.37,2013-08-24 23:16:00,
2013-08-24 18:21:00,98.0,66.5,29.89,NE,43,3.5,3.5,36,0.00,CLR,,0.01,WeatherDisplay:10.37,2013-08-24 23:21:00,
2013-08-24 18:26:00,97.4,66.8,29.89,East,101,1.2,1.2,37,0.00,CLR,,0.01,WeatherDisplay:10.37,2013-08-24 23:26:00,
2013-08-24 18:31:00,97.0,67.2,29.89,ENE,71,2.3,2.3,38,0.00,CLR,,0.01,WeatherDisplay:10.37,2013-08-24 23:31:00,
2013-08-24 18:36:00,97.2,67.4,29.89,ENE,76,4.6,4.6,38,0.00,CLR,,0.01,WeatherDisplay:10.37,2013-08-24 23:36:00,
2013-08-24 18:41:00,97.1,66.5,29.89,ENE,59,3.5,3.5,37,0.00,CLR,,0.01,WeatherDisplay:10.37,2013-08-24 23:41:00,
2013-08-24 18:46:00,96.7,66.9,29.89,ENE,59,3.5,3.5,38,0.00,CLR,,0.01,WeatherDisplay:10.37,2013-08-24 23:46:00,
2013-08-24 18:51:00,96.5,66.0,29.89,NE,51,3.5,3.5,37,0.00,CLR,,0.01,WeatherDisplay:10.37,2013-08-24 23:51:00,
2013-08-24 18:56:00,96.3,66.6,29.89,ESE,108,1.2,1.2,38,0.00,CLR,,0.01,WeatherDisplay:10.37,2013-08-24 23:56:00,
2013-08-24 19:01:00,96.0,66.3,29.89,ENE,67,3.5,3.5,38,0.00,CLR,,0.01,WeatherDisplay:10.37,2013-08-25 00:01:00,
2013-08-24 19:06:00,96.1,66.4,29.89,NE,55,1.2,1.2,38,0.00,CLR,,0.01,WeatherDisplay:10.37,2013-08-25 00:06:00,
2013-08-24 19:11:00,96.3,66.6,29.89,East,86,8.1,8.1,38,0.00,CLR,,0.01,WeatherDisplay:10.37,2013-08-25 00:11:00,
2013-08-24 19:16:00,96.0,67.0,29.89,East,85,11.5,11.5,39,0.00,CLR,,0.01,WeatherDisplay:10.37,2013-08-25 00:16:00,
2013-08-24 19:21:00,95.9,67.7,29.89,East,81,8.1,8.1,40,0.00,CLR,,0.01,WeatherDisplay:10.37,2013-08-25 00:21:00,
2013-08-24 19:26:00,95.4,68.0,29.90,East,99,21.9,21.9,41,0.00,CLR,,0.01,WeatherDisplay:10.37,2013-08-25 00:26:00,
2013-08-24 19:31:00,93.9,68.0,29.90,ENE,59,8.1,8.1,43,0.00,CLR,,0.01,WeatherDisplay:10.37,2013-08-25 00:31:00,
2013-08-24 19:36:00,92.5,67.4,29.90,ENE,66,13.8,13.8,44,0.00,CLR,,0.01,WeatherDisplay:10.37,2013-08-25 00:36:00,
2013-08-24 19:41:00,91.3,67.6,29.90,ENE,71,9.2,9.2,46,0.00,CLR,,0.01,WeatherDisplay:10.37,2013-08-25 00:41:00,
2013-08-24 19:46:00,90.6,67.0,29.91,East,80,12.7,12.7,46,0.00,CLR,,0.01,WeatherDisplay:10.37,2013-08-25 00:46:00,
2013-08-24 19:51:00,90.2,67.2,29.91,ENE,68,12.7,12.7,47,0.00,CLR,,0.01,WeatherDisplay:10.37,2013-08-25 00:51:00,
2013-08-24 19:56:00,89.9,67.0,29.91,ENE,71,11.5,11.5,47,0.00,CLR,,0.01,WeatherDisplay:10.37,2013-08-25 00:56:00,
2013-08-24 20:01:00,89.8,67.5,29.91,ENE,58,8.1,8.1,48,0.00,CLR,,0.01,WeatherDisplay:10.37,2013-08-25 01:01:00,
2013-08-24 20:06:00,89.6,67.9,29.91,East,92,10.4,10.4,49,0.00,CLR,,0.01,WeatherDisplay:10.37,2013-08-25 01:06:00,
2013-08-24 20:11:00,89.2,68.7,29.92,East,88,9.2,9.2,51,0.00,CLR,,0.01,WeatherDisplay:10.37,2013-08-25 01:11:00,
2013-08-24 20:16:00,88.9,69.0,29.92,ESE,107,10.4,10.4,52,0.00,CLR,,0.01,WeatherDisplay:10.37,2013-08-25 01:16:00,
2013-08-24 20:21:00,88.7,69.4,29.93,ESE,117,8.1,8.1,53,0.00,CLR,,0.01,WeatherDisplay:10.37,2013-08-25 01:21:00,
2013-08-24 20:26:00,88.3,69.5,29.93,East,95,5.8,5.8,54,0.00,CLR,,0.01,WeatherDisplay:10.37,2013-08-25 01:26:00,
2013-08-24 20:31:00,88.0,70.3,29.93,East,82,6.9,6.9,56,0.00,CLR,,0.01,WeatherDisplay:10.37,2013-08-25 01:31:00,
2013-08-24 20:36:00,87.7,70.6,29.93,East,96,11.5,11.5,57,0.00,CLR,,0.01,WeatherDisplay:10.37,2013-08-25 01:36:00,
2013-08-24 20:41:00,87.6,71.0,29.93,ESE,111,8.1,8.1,58,0.00,CLR,,0.01,WeatherDisplay:10.37,2013-08-25 01:41:00,
2013-08-24 20:46:00,87.4,71.3,29.93,ESE,111,11.5,11.5,59,0.00,CLR,,0.01,WeatherDisplay:10.37,2013-08-25 01:46:00,
2013-08-24 20:51:00,87.3,71.7,29.94,ESE,102,8.1,8.1,60,0.00,CLR,,0.01,WeatherDisplay:10.37,2013-08-25 01:51:00,
2013-08-24 20:56:00,87.2,71.6,29.94,East,80,5.8,5.8,60,0.00,CLR,,0.01,WeatherDisplay:10.37,2013-08-25 01:56:00,
2013-08-24 21:01:00,87.0,71.9,29.94,East,88,5.8,5.8,61,0.00,CLR,,0.01,WeatherDisplay:10.37,2013-08-25 02:01:00,
2013-08-24 21:06:00,87.0,71.9,29.95,East,93,4.6,4.6,61,0.00,CLR,,0.01,WeatherDisplay:10.37,2013-08-25 02:06:00,
2013-08-24 21:11:00,86.9,72.3,29.95,East,80,8.1,8.1,62,0.00,CLR,,0.01,WeatherDisplay:10.37,2013-08-25 02:11:00,
2013-08-24 21:16:00,86.9,72.3,29.95,East,100,5.8,5.8,62,0.00,CLR,,0.01,WeatherDisplay:10.37,2013-08-25 02:16:00,
2013-08-24 21:21:00,86.8,72.7,29.95,East,98,7.0,7.0,63,0.00,CLR,,0.01,WeatherDisplay:10.37,2013-08-25 02:21:00,
2013-08-24 21:26:00,86.7,72.6,29.96,ESE,109,10.4,10.4,63,0.00,CLR,,0.01,WeatherDisplay:10.37,2013-08-25 02:26:00,
2013-08-24 21:31:00,86.6,73.0,29.96,East,100,8.1,8.1,64,0.00,CLR,,0.01,WeatherDisplay:10.37,2013-08-25 02:31:00,
2013-08-24 21:36:00,86.5,72.9,29.96,East,83,10.4,10.4,64,0.00,CLR,,0.01,WeatherDisplay:10.37,2013-08-25 02:36:00,
2013-08-24 21:41:00,86.3,72.7,29.96,East,84,6.9,6.9,64,0.00,CLR,,0.01,WeatherDisplay:10.37,2013-08-25 02:41:00,
2013-08-24 21:46:00,86.2,73.0,29.96,SE,132,10.4,10.4,65,0.00,CLR,,0.01,WeatherDisplay:10.37,2013-08-25 02:46:00,
2013-08-24 21:51:00,86.1,73.0,29.97,ESE,102,8.1,8.1,65,0.00,CLR,,0.01,WeatherDisplay:10.37,2013-08-25 02:51:00,
2013-08-24 21:56:00,86.0,72.9,29.97,East,85,10.4,10.4,65,0.00,CLR,,0.01,WeatherDisplay:10.37,2013-08-25 02:56:00,
2013-08-24 22:01:00,85.9,73.2,29.97,East,98,9.2,9.2,66,0.00,CLR,,0.01,WeatherDisplay:10.37,2013-08-25 03:01:00,
2013-08-24 22:06:00,85.7,73.0,29.97,East,90,8.1,8.1,66,0.00,CLR,,0.01,WeatherDisplay:10.37,2013-08-25 03:06:00,
2013-08-24 22:11:00,85.6,72.9,29.97,East,100,11.5,11.5,66,0.00,CLR,,0.01,WeatherDisplay:10.37,2013-08-25 03:11:00,
2013-08-24 22:16:00,85.4,72.7,29.97,East,88,5.8,5.8,66,0.00,CLR,,0.01,WeatherDisplay:10.37,2013-08-25 03:16:00,
2013-08-24 22:21:00,85.2,73.0,29.98,East,101,11.5,11.5,67,0.00,CLR,,0.01,WeatherDisplay:10.37,2013-08-25 03:21:00,
2013-08-24 22:26:00,85.0,72.8,29.98,East,86,8.1,8.1,67,0.00,CLR,,0.01,WeatherDisplay:10.37,2013-08-25 03:26:00,
2013-08-24 22:31:00,84.8,72.6,29.98,ESE,119,8.1,8.1,67,0.00,CLR,,0.01,WeatherDisplay:10.37,2013-08-25 03:31:00,
2013-08-24 22:36:00,84.7,72.5,29.98,ESE,102,5.8,5.8,67,0.00,CLR,,0.01,WeatherDisplay:10.37,2013-08-25 03:36:00,
2013-08-24 22:41:00,84.5,72.3,29.99,ESE,105,8.0,8.0,67,0.00,CLR,,0.01,WeatherDisplay:10.37,2013-08-25 03:41:00,
2013-08-24 22:46:00,84.3,72.6,29.99,East,94,8.1,8.1,68,0.00,CLR,,0.01,WeatherDisplay:10.37,2013-08-25 03:46:00,
2013-08-24 22:51:00,84.2,72.5,29.99,ESE,119,4.6,4.6,68,0.00,CLR,,0.01,WeatherDisplay:10.37,2013-08-25 03:51:00,
2013-08-24 22:56:00,83.9,72.6,29.99,East,91,4.6,4.6,69,0.00,CLR,,0.01,WeatherDisplay:10.37,2013-08-25 03:56:00,
2013-08-24 23:01:00,83.8,72.5,30.00,SSE,168,5.8,5.8,69,0.00,CLR,,0.01,WeatherDisplay:10.37,2013-08-25 04:01:00,
2013-08-24 23:02:00,83.7,72.4,30.00,East,84,3.5,3.5,69,0.00,CLR,,0.01,WeatherDisplay:10.37,2013-08-25 04:02:00,
2013-08-24 23:07:00,83.5,72.3,30.00,East,93,8.1,8.1,69,0.00,CLR,,0.01,WeatherDisplay:10.37,2013-08-25 04:07:00,
2013-08-24 23:12:00,83.3,72.1,30.00,ESE,117,4.6,4.6,69,0.00,CLR,,0.01,WeatherDisplay:10.37,2013-08-25 04:12:00,
2013-08-24 23:17:00,83.2,72.0,30.00,East,100,5.8,5.8,69,0.00,CLR,,0.01,WeatherDisplay:10.37,2013-08-25 04:17:00,
2013-08-24 23:22:00,83.1,72.3,30.00,ESE,118,3.5,3.5,70,0.00,CLR,,0.01,WeatherDisplay:10.37,2013-08-25 04:22:00,
2013-08-24 23:27:00,82.9,72.1,30.00,SE,125,1.2,1.2,70,0.00,CLR,,0.01,WeatherDisplay:10.37,2013-08-25 04:27:00,
2013-08-24 23:32:00,82.7,71.9,30.00,ESE,119,2.3,2.3,70,0.00,CLR,,0.01,WeatherDisplay:10.37,2013-08-25 04:32:00,
2013-08-24 23:37:00,82.4,71.6,30.00,SE,136,3.5,3.5,70,0.00,CLR,,0.01,WeatherDisplay:10.37,2013-08-25 04:37:00,
2013-08-24 23:42:00,82.1,71.3,30.00,SE,141,4.6,4.6,70,0.00,CLR,,0.01,WeatherDisplay:10.37,2013-08-25 04:42:00,
2013-08-24 23:47:00,81.9,70.7,30.00,SE,135,3.5,3.5,69,0.00,CLR,,0.01,WeatherDisplay:10.37,2013-08-25 04:47:00,
2013-08-24 23:52:00,81.8,70.6,30.00,SE,145,3.5,3.5,69,0.00,CLR,,0.01,WeatherDisplay:10.37,2013-08-25 04:52:00,
2013-08-24 23:57:00,81.7,70.5,30.00,SE,127,3.5,3.5,69,0.00,CLR,,0.01,WeatherDisplay:10.37,2013-08-25 04:57:00,